Terminal Aerodrome Forecast
Issued by NWS

Home | Current Version | Previous Version | Text Only | Print | Product List | Glossary On
Versions: 1 2 3 4 5 6 7 8 9 10 11 12 13 14 15 16 17 18 19 20 21 22 23 24 25
000
FTUS41 KGYX 261214 AAA
TAFAUG
TAF AMD
KAUG 261214Z 2612/2712 VRB03KT P6SM SCT050
     FM261300 26009G17KT P6SM SCT050
     FM261400 27011G18KT P6SM SCT080
     FM270400 26005KT P6SM BKN250=

USA.gov is the U.S. government's official web portal to all federal, state and local government web resources and services.